Location: Sternwarte ZA, Rosenfeld-Brittheim
(48.2889°N, 8.6789°E)
Time: 19:46:24
(UTC+01:00)

ISS - Pass Details

Date: 08 December 2017
Orbit: 402 x 407 km, 51.6° (Epoch: 11 December)

Event Time Altitude Azimuth Distance (km) Brightness Sun altitude
Rises 17:32:57 0° 276° (W) 2,330 1.2 -9.8°
Reaches altitude 10° 17:35:05 10° 283° (WNW) 1,469 -0.1 -10.2°
Maximum altitude 17:38:16 44° 358° (N) 574 -3.2 -10.7°
Enters shadow 17:40:27 18° 65° (ENE) 1,093 -2.3 -11.0°
